Location: Voyageurs National Park
(48.5020°N, 92.9292°W)
Time: 05:38:58
(UTC-05:00)

Daily predictions for brighter satellites

Satellite Brightness Start Highest point End
(mag) Time Altitude Azimuth Time Altitude Azimuth Time Altitude Azimuth
Cosmos 1689 Rocket 3.6 00:02:29 27° E 00:03:06 29° ENE 00:05:57 10° N
Cosmos 1741 Rocket 4.2 00:01:32 19° SSW 00:05:24 72° WNW 00:10:46 10° NNE
Genesis I 4.4 00:02:29 10° NNW 00:06:15 38° NE 00:08:29 20° E
S3M 4.2 00:00:41 10° N 00:06:52 59° ENE 00:10:04 28° SE
Meteor 2-1 Rocket 4.3 00:00:56 10° N 00:06:53 76° ENE 00:09:46 32° SSE
Cosmos 2221 2.4 00:05:32 10° N 00:09:52 87° W 00:11:18 42° S
Cosmos 1766 Rocket 4.1 00:08:57 35° SE 00:10:13 45° E 00:14:30 10° NNE
Cosmos 1076 Rocket 3.9 00:09:33 38° SE 00:10:37 48° E 00:14:43 10° NNE
Cosmos 1340 2.8 00:09:25 39° SSW 00:10:40 71° WNW 00:14:29 10° N
Cosmos 1470 3.4 00:07:00 10° NNW 00:10:44 45° W 00:11:59 33° SW
Cosmos 841 Rocket 4.4 00:07:34 10° NNW 00:12:34 41° ENE 00:15:37 21° ESE
NOSS 3-2 (C) 3.9 00:11:29 31° S 00:14:01 46° ESE 00:20:22 10° NE
Meteor 1-16 Rocket 4.2 00:11:13 10° NNW 00:16:51 80° W 00:19:34 33° S
ISS -2.2 00:15:46 10° WNW 00:18:56 46° N 00:22:07 10° ENE
H-2A R/B 3.9 00:16:38 12° SW 00:19:44 20° W 00:23:28 10° NW
Cosmos 1980 Rocket 4.0 00:16:42 10° N 00:21:24 26° NE 00:26:05 10° ESE
Cosmos 1655 Rocket 4.0 00:20:20 30° S 00:23:40 85° E 00:29:58 10° N
Cosmos 2278 3.6 00:19:54 10° NNW 00:25:36 90° ENE 00:28:13 34° SSE
Cosmos 405 Rocket 3.1 00:25:50 42° ESE 00:26:20 45° E 00:29:57 10° NNE
Cosmos 1515 Rocket 4.5 00:24:09 10° N 00:28:22 39° ENE 00:29:59 29° ESE
SL-23 DEB 3.7 00:27:37 10° WSW 00:31:58 76° NNW 00:35:09 10° ENE
CZ-4C R/B 2.2 00:30:35 33° SSW 00:33:03 64° SE 00:39:06 10° NE
COSMOS 2406 4.2 00:28:21 10° SW 00:33:49 45° NW 00:39:21 10° NNE
Cosmos 468 Rocket 4.1 00:30:12 10° NNW 00:35:26 64° WSW 00:37:21 37° S
Cosmos 1607 4.2 00:30:09 10° SW 00:36:23 67° NW 00:42:34 10° NE
Cosmos 2026 Rocket 4.0 00:37:00 28° SSW 00:40:18 72° WNW 00:46:23 10° N
Lacrosse 5 rocket 3.1 00:37:23 10° NW 00:41:14 34° NNE 00:45:16 10° E
Cosmos 1697 Rocket 3.4 00:35:55 10° NNW 00:41:26 48° NE 00:45:14 20° ESE
Cosmos 2228 Rocket 3.0 00:37:21 10° N 00:41:48 86° E 00:43:03 47° SSE
Cosmos 1814 Rocket 4.2 00:38:53 10° NNW 00:44:06 61° WSW 00:46:01 38° S
Cosmos 2082 Rocket 3.0 00:45:38 31° SE 00:47:16 37° ESE 00:52:26 10° NE
ATLAS 3B R/B 4.4 00:41:50 10° W 00:48:48 37° NNW 00:55:30 10° NE
Cosmos 1707 4.1 00:48:09 24° WSW 00:49:42 33° WNW 00:53:18 10° N
Cosmos 1437 Rocket 4.2 00:48:03 10° N 00:51:32 29° ENE 00:52:51 24° ESE
Cosmos 1833 Rocket 3.7 00:50:36 27° SE 00:52:09 32° ESE 00:57:05 10° NE
NOSS 3-2 (A) 3.5 00:52:41 22° SW 00:57:00 88° NW 01:03:53 10° NE
Helios 1A Rocket 2.9 00:54:32 10° NNE 00:58:37 66° ESE 00:59:26 51° SSE
Cosmos 1408 Rocket 4.3 01:02:54 31° SW 01:04:36 48° WNW 01:08:57 10° N
Cosmos 1656 3.7 00:59:06 10° NNW 01:04:51 86° ENE 01:07:36 32° SSE
Lacrosse 5 1.8 00:59:51 10° NW 01:04:57 84° NE 01:08:18 22° ESE
Cosmos 1486 Rocket 3.9 01:02:59 37° SSW 01:05:08 87° WNW 01:10:24 10° NNE
ALOS 2 3.2 01:05:18 37° SW 01:06:22 44° W 01:10:36 10° NNW
Cosmos 1378 3.6 01:08:12 43° WSW 01:09:01 52° WNW 01:12:45 10° N
Cosmos 1674 3.6 01:10:04 32° ESE 01:10:36 34° E 01:14:02 10° NNE
Cosmos 540 Rocket 4.2 01:06:22 10° NNW 01:11:24 49° ENE 01:14:31 22° SE
Cosmos 883 Rocket 4.5 01:05:59 10° N 01:12:23 89° E 01:15:26 33° S
Cosmos 405 4.4 01:09:25 10° N 01:12:41 31° ENE 01:13:43 26° ESE
Cosmos 1763 Rocket 3.6 01:07:59 10° NNW 01:13:15 63° WSW 01:15:04 39° S
Meteor 1-24 Rocket 4.5 01:11:55 24° SW 01:15:18 50° WNW 01:21:01 10° N
Cosmos 1818 4.4 01:11:41 10° NW 01:16:35 34° WSW 01:17:44 31° SW
Cosmos 2151 4.0 01:16:00 30° SE 01:17:06 35° E 01:20:59 10° NNE
Cosmos 1151 Rocket 3.0 01:13:13 10° N 01:17:30 71° E 01:18:43 45° SSE
CZ-2C R/B 3.0 01:12:44 10° NNE 01:18:12 55° E 01:20:21 34° SSE
MOS 1-B Rocket 4.4 01:13:52 26° SSE 01:18:23 79° ENE 01:24:50 10° NNW
CZ-4B R/B 2.8 01:18:11 29° WSW 01:18:30 30° W 01:21:50 10° NNW
Meteor 2-20 Rocket 4.5 01:19:29 34° S 01:22:18 77° E 01:28:30 10° NNE
SL-16 R/B 3.9 01:21:02 10° NNW 01:26:03 31° NE 01:31:02 10° ESE
Cosmos 1743 Rocket 4.1 01:31:33 35° SW 01:33:02 50° WNW 01:37:23 10° N
H-2A R/B 3.8 01:30:41 10° N 01:34:01 28° WNW 01:35:29 22° WSW
In-Cosmos 22 4.3 01:32:40 34° SSW 01:35:09 71° WNW 01:40:53 10° N
Cosmos 1689 Rocket 4.3 01:35:33 17° W 01:35:33 17° W 01:37:39 10° NW
Cosmos 2322 Rocket 3.5 01:31:52 10° NNW 01:37:05 37° NE 01:42:16 10° ESE
Genesis I 4.4 01:40:26 10° WNW 01:43:29 28° WSW 01:43:29 28° WSW
Aureole 1 Rocket 3.4 01:43:32 10° NNW 01:48:06 75° WSW 01:50:44 33° S
Sich 1 4.4 01:46:25 23° SE 01:48:11 31° E 01:52:06 10° NNE
Cosmos 2315 Rocket 4.0 01:42:18 10° NNW 01:48:37 71° W 01:51:40 32° S
Cosmos 1328 4.0 01:47:52 44° SSE 01:48:52 60° E 01:52:48 10° NNE
Cosmos 1500 Rocket 4.1 01:48:34 34° SW 01:49:57 47° WNW 01:54:09 10° N
Cosmos 1354 Rocket 4.2 01:51:04 31° SW 01:53:36 65° WNW 01:58:54 10° NNE
CENTAUR R/B 2.8 01:50:51 32° S 01:53:38 55° ESE 02:00:25 10° NE
Cosmos 2266 Rocket 4.4 01:50:26 28° SW 01:53:50 56° WNW 02:00:09 10° N
Cosmos 841 Rocket 4.5 01:49:43 10° NW 01:54:21 32° WSW 01:55:43 28° SW
COS B Rocket 3.7 01:52:45 10° NNE 01:54:23 30° NE 01:54:23 30° NE
Cosmos 1867 4.0 01:52:05 22° WSW 01:55:34 61° NW 02:01:02 10° NE
ISS -3.1 01:52:22 10° WNW 01:55:39 72° NNE 01:58:54 10° ESE
Cosmos 1503 Rocket 4.3 01:56:13 29° SW 01:58:50 62° WNW 02:04:07 10° NNE
Cosmos 332 Rocket 3.7 01:54:51 10° NNW 01:59:41 87° ENE 02:01:59 31° SSE
Nadezhda 1 Rocket 4.5 01:54:02 10° N 02:00:06 55° ENE 02:04:27 19° SSE
USA 32 4.0 01:55:03 10° N 02:00:19 80° W 02:02:36 35° S
NOSS 3-2 (C) 4.4 01:58:52 10° WSW 02:04:56 50° NW 02:11:41 10° NE
Cosmos 1908 4.2 02:02:06 10° NNW 02:05:34 32° W 02:06:06 31° WSW
Cosmos 1980 Rocket 2.2 02:00:19 10° NNW 02:05:55 69° WSW 02:08:46 30° S
Cosmos 2360 Rocket 4.2 02:01:27 10° NNW 02:06:12 27° NE 02:10:55 10° ESE
ERS-2 4.2 02:04:37 10° NE 02:07:17 19° E 02:08:48 15° SE
PSLV R/B 4.2 02:06:37 41° SSW 02:07:39 52° W 02:11:45 10° NNW
ASTEX 1 3.4 02:02:46 10° N 02:07:46 82° E 02:09:56 34° S
Meteor 2-11 Rocket 4.5 02:05:35 10° NNW 02:11:43 72° W 02:14:58 29° S
Cosmos 2344 3.8 02:06:43 20° SW 02:12:35 80° NW 02:22:02 10° NE
Cosmos 1300 2.6 02:11:00 10° NNW 02:14:52 82° W 02:15:57 45° S
Meteor 1-11 4.4 02:13:06 28° S 02:16:11 69° E 02:21:59 10° NNE
BREEZE-M DEB (TANK) 2.9 02:17:25 10° W 02:20:03 65° SSW 02:27:26 10° ESE
Lacrosse 5 rocket 1.3 02:16:33 10° WNW 02:20:51 77° SW 02:25:20 10° SE
CZ-4C R/B 3.7 02:16:47 10° W 02:22:01 36° NNW 02:27:54 10° NE
SL-08 R/B 4.4 02:18:21 11° SE 02:22:40 44° ENE 02:27:21 10° N
CZ-2C R/B 3.7 02:21:10 30° SSW 02:23:35 48° W 02:29:10 10° NNW
Cosmos 1441 Rocket 4.4 02:22:45 27° WSW 02:24:04 34° WNW 02:27:42 10° N
Cosmos 1697 Rocket 3.6 02:20:15 10° NW 02:25:13 32° WSW 02:26:56 27° SW
ATLAS CENTAUR R/B 4.0 02:23:07 10° NNW 02:27:11 26° NNE 02:31:02 10° E
Cosmos 1437 Rocket 4.1 02:24:34 10° NW 02:27:46 24° W 02:28:19 23° WSW
PSLV R/B 3.9 02:23:45 10° NNE 02:28:19 62° E 02:30:25 30° S
Cosmos 1538 Rocket 3.9 02:23:36 10° NNW 02:28:50 78° WSW 02:32:03 24° SSE
Cosmos 2082 Rocket 3.1 02:27:28 18° WSW 02:31:18 42° NW 02:36:43 10° NNE
Cosmos 1726 2.1 02:29:36 10° NNW 02:33:17 66° W 02:34:22 42° SSW
Cosmos 1833 Rocket 3.3 02:32:16 21° WSW 02:35:53 48° NW 02:41:22 10° NNE
Cosmos 2058 3.2 02:34:30 34° SW 02:36:03 56° WNW 02:40:10 10° N
ATLAS 5 CENTAUR R/B 3.6 02:37:19 15° SSE 02:39:48 21° ESE 02:43:37 10° ENE
Cosmos 1680 Rocket 4.2 02:35:49 10° NNW 02:40:56 53° ENE 02:46:01 10° SE
Cosmos 1805 Rocket 4.0 02:39:27 30° SW 02:41:19 51° WNW 02:45:41 10° N
Cosmos 1455 3.0 02:38:10 10° N 02:41:53 48° ENE 02:44:25 18° SE
Cosmos 773 Rocket 4.0 02:37:51 10° NNW 02:43:02 83° ENE 02:47:30 14° SSE
Abrixas 2.4 02:42:00 36° W 02:43:08 87° S 02:46:14 10° E
SL-08 R/B 4.5 02:40:41 26° SSW 02:44:16 71° W 02:50:25 10° N
SL-23 DEB 4.0 02:41:40 10° WNW 02:44:52 55° N 02:48:08 10° E
Lacrosse 5 3.0 02:43:28 10° WNW 02:47:24 23° SW 02:47:24 23° SW
Cosmos 1633 Rocket 3.1 02:46:01 31° SSW 02:48:04 69° WNW 02:52:30 10° N
Cosmos 2242 Rocket 3.8 02:44:05 10° NNW 02:48:24 55° W 02:50:21 30° SSW
IRS-P3 4.4 02:43:40 10° NNE 02:48:59 63° ESE 02:52:27 22° S
Cosmos 371 Rocket 3.5 02:45:25 10° NNW 02:50:08 50° WSW 02:52:28 27° SSW
Landsat 4 4.1 02:51:52 34° SSW 02:53:01 46° W 02:56:39 10° NNW
CZ-2C R/B 4.2 02:53:34 10° N 02:58:09 27° WNW 03:01:52 13° WSW
Cosmos 1626 2.9 02:56:32 21° SSE 02:58:43 47° E 03:02:21 10° NNE
Cosmos 1666 Rocket 4.1 02:56:44 26° SW 02:58:44 44° WNW 03:02:54 10° N
Cosmos 304 Rocket 4.2 02:54:40 10° NNW 02:59:30 64° ENE 03:04:17 10° SSE
ARIANE 5 R/B 4.3 02:56:13 10° NE 03:00:22 25° E 03:04:28 10° SSE
Cosmos 2181 Rocket 4.1 02:58:59 10° N 03:05:11 77° E 03:11:24 10° SSE
USA 215 3.7 03:00:44 10° ENE 03:07:01 47° SE 03:11:25 20° SSW
Cosmos 1470 Rocket 3.5 03:06:48 24° SSW 03:09:25 82° W 03:13:52 10° N
SL-16 R/B 2.3 03:04:57 10° NW 03:10:30 56° WSW 03:15:18 14° S
Cosmos 1437 4.4 03:10:41 20° WSW 03:11:53 24° WNW 03:14:42 10° NNW
Cosmos 1933 Rocket 3.5 03:11:10 24° SSW 03:13:47 77° W 03:18:14 10° N
BREEZE-M DEB (TANK) 2.1 03:09:09 10° W 03:15:05 88° SSW 03:17:35 10° ESE
ADEOS 4.0 03:12:28 10° NNE 03:17:39 57° E 03:22:03 14° S
SL-14 R/B 4.5 03:18:51 20° WSW 03:20:40 28° WNW 03:24:04 10° N
AQUA 3.8 03:16:19 10° NNE 03:21:06 84° ESE 03:24:37 18° SSW
Cosmos 2322 Rocket 2.6 03:15:56 10° NW 03:21:14 43° WSW 03:25:26 16° S
Okean 1-7 4.3 03:18:10 10° N 03:22:20 40° ENE 03:26:28 10° SE
Cosmos 1869 3.3 03:20:54 10° NNW 03:24:51 65° W 03:27:40 18° S
Sich 1 4.3 03:23:24 18° WSW 03:25:53 29° WNW 03:29:47 10° N
Cosmos 2219 Rocket 4.4 03:22:41 10° NNW 03:27:30 28° NE 03:32:18 10° ESE
Cosmos 1271 Rocket 3.5 03:28:04 10° NNW 03:31:31 33° W 03:33:22 21° SW
ISS -2.5 03:29:03 10° W 03:31:54 28° SW 03:34:44 10° SSE
Cosmos 1703 4.2 03:30:05 20° SW 03:32:17 36° WNW 03:35:59 10° N
USA 161 0.8 03:34:44 23° S 03:36:01 77° W 03:38:25 10° NNW
Cosmos 2112 Rocket 4.0 03:31:00 10° NNW 03:36:10 67° WSW 03:41:18 10° S
CZ-2D R/B 3.4 03:32:44 10° NNE 03:37:35 37° E 03:42:28 10° SSE
ERS-2 3.0 03:37:47 10° N 03:41:15 38° WNW 03:43:39 17° SW
Meteor 1-4 Rocket 3.9 03:38:27 10° NW 03:41:38 26° W 03:43:29 18° SW
Cosmos 968 Rocket 4.3 03:39:41 15° WSW 03:43:36 39° WNW 03:48:27 10° N
Cosmos 2184 Rocket 4.5 03:37:50 10° S 03:44:04 62° E 03:50:18 10° NNE
CENTAUR R/B 3.5 03:38:24 10° WSW 03:44:33 45° NW 03:51:29 10° NE
Cosmos 1862 Rocket 4.5 03:41:19 10° NNW 03:45:19 32° W 03:48:14 16° SW
Cosmos 1980 Rocket 4.1 03:47:27 10° W 03:48:51 11° W 03:50:15 10° WSW
EO 1 Del DPAF 3.3 03:45:32 10° SSE 03:49:27 89° WSW 03:53:23 10° NNW
NPP 4.1 03:44:51 10° N 03:50:04 51° WNW 03:54:33 14° SW
Cosmos 2360 Rocket 2.2 03:45:05 10° NNW 03:50:41 66° WSW 03:56:16 10° SSE
SL-16 R/B 2.6 03:44:26 10° SSE 03:50:43 86° ENE 03:57:02 10° NNW
Okean O Rocket 3.8 03:48:27 10° NE 03:51:55 22° E 03:55:20 10° SE
USA 129 2.6 03:53:56 11° SE 03:55:06 31° ENE 03:56:29 10° N
Cosmos 1709 Rocket 4.3 03:49:55 14° SSW 03:55:18 54° WNW 04:01:25 10° N
Lacrosse 5 rocket 3.1 03:57:02 10° W 03:59:36 15° SW 04:01:02 13° SW
SL-08 R/B 4.5 03:57:20 14° SW 04:00:41 27° W 04:04:51 10° NW
Cosmos 1933 3.6 03:57:52 10° NNW 04:01:46 48° W 04:05:38 10° SSW
ATLAS CENTAUR R/B 1.5 04:02:03 10° NW 04:06:50 73° SW 04:11:13 10° SSE
Cosmos 2322 4.0 04:05:24 10° NW 04:10:54 48° WSW 04:16:22 10° S
Cosmos 2221 Rocket 4.1 04:08:26 10° NNW 04:12:43 43° W 04:17:00 10° SSW
Cosmos 2219 3.7 04:07:48 10° S 04:13:26 61° ESE 04:19:07 10° NNE
Meteor 1-26 Rocket 4.2 04:08:40 10° NNW 04:14:13 70° W 04:19:42 10° S
USA 229 DEB 4.2 04:07:44 10° SSW 04:14:29 57° ESE 04:21:18 10° NE
USA 229 4.2 04:07:51 10° SSW 04:14:35 56° ESE 04:21:25 10° NE
Cosmos 1869 Rocket 3.6 04:10:37 10° SSW 04:14:59 67° W 04:19:27 10° N
Spot 4 Rocket 4.3 04:11:00 10° N 04:16:03 57° WNW 04:21:04 10° SSW
Cosmos 2298 Rocket 4.2 04:11:48 10° SSW 04:17:08 79° ESE 04:22:30 10° NNE
Cosmos 1455 4.2 04:15:08 10° NW 04:17:12 14° W 04:19:15 10° WSW
Abrixas 2.4 04:16:10 10° W 04:19:15 71° SSW 04:22:20 10° ESE
H-2A R/B 4.1 04:13:41 10° SW 04:19:35 30° SSE 04:43:58 10° ESE
CZ-2D R/B 4.4 04:16:59 10° NNE 04:21:02 47° E 04:24:57 10° S
BREEZE-M DEB (TANK) 3.5 04:13:26 10° W 04:21:59 63° SSW 04:25:15 10° ESE
Resurs 1-4 Rocket 2.2 04:18:20 10° NNE 04:23:41 88° ESE 04:29:01 10° SSW
ATLAS 5 CENTAUR R/B 2.1 04:18:54 10° SW 04:23:52 72° NW 04:29:18 10° NE
BREEZE-M TANK 2.0 04:22:15 10° W 04:25:43 47° S 04:28:06 10° ESE
MOS 1-B 4.4 04:23:33 10° NNE 04:29:24 90° SE 04:35:12 10° SSW
MTI 4.2 04:26:50 10° S 04:30:05 47° W 04:33:22 10° NNW
Cosmos 2333 Rocket 3.0 04:27:12 10° NNW 04:32:50 58° ENE 04:38:28 10° SE
Cosmos 1626 4.2 04:32:10 10° WSW 04:34:27 15° WNW 04:36:44 10° NNW
Cosmos 1980 4.5 04:31:05 10° NNW 04:36:43 60° ENE 04:42:17 10° SE
ARIANE 5 R/B 2.9 04:34:51 10° N 04:39:47 50° WNW 04:44:38 10° SW
MOZ.5/SAFIR/RUBIN 5/SL-8 4.2 04:36:55 10° SSE 04:41:34 70° ENE 04:46:20 10° N
